User: anonymous   Login
Location: Turtle Rock Observatory
(36.6913°N, 81.9708°W)
Time: 06:59:50
(UTC-04:00)
Language:

Cosmos 1125 Rocket - Orbit

View from above orbital plane
View from above orbital plane
View from above satellite
View from above satellite

Ground track
Ground track

The orbit data is extracted from the following two-line orbital elements,

1 11511U 79078B   15114.13497677  .00000379  00000-0  13770-3 0  9996
2 11511 074.0361 318.0695 0015143 031.1611 329.0437 14.36606328865872
Epoch (UTC): 24 April 2015 03:14:21
Eccentricity: 0.0015143
inclination: 74.0361°
perigee height: 759 km
apogee height: 780 km
right ascension of ascending node: 318.0695°
argument of perigee: 31.1611°
revolutions per day: 14.36606328
mean anomaly at epoch: 329.0437°
orbit number at epoch: 86587

The dashed part of the orbit path shows where the satellite is in the earth's shadow,  

DLR